Theta_e
327 329 330 332 345 349 354 365 369 363 359 356 355 354 353 353 355 355 351 353 357 352 353 351 357 357 351 354 354 353 352 352
320 321 324 328 336 346 356 360 364 370 363 363 359 355 354 354 354 359 357 359 360 357 354 355 355 356 355 353 354 356 354 353
321 322 323 329 333 339 342 357 367 371 372 367 368 357 360 360 359 360 361 358 356 353 353 357 350 350 351 350 348 351 349 348
322 324 325 330 332 340 344 346 364 366 371 372 369 370 364 366 358 358 358 359 361 361 354 357 358 356 356 352 350 351 349 346
321 325 338 332 331 339 344 349 364 367 372 372 371 366 359 352 357 358 353 357 357 359 355 354 348 348 344 347 349 342 339 337
323 325 330 332 342 340 343 335 362 365 370 368 367 365 360 363 363 363 355 357 357 357 350 344 346 342 340 340 339 337 335 332
328 327 329 338 338 340 348 351 360 364 366 366 367 366 363 359 356 353 351 357 349 346 344 343 342 341 340 338 337 335 332 334
328 329 331 336 338 342 347 348 362 364 363 366 363 360 362 352 352 349 352 348 344 343 344 343 341 339 337 339 337 337 336 334
327 328 330 331 337 341 345 348 361 363 360 356 354 348 356 344 343 348 346 343 342 344 341 340 339 337 340 338 336 332 330 334
326 328 331 336 342 347 350 354 360 362 359 358 357 346 347 342 344 345 343 341 340 340 340 339 340 336 336 337 338 330 327 329
325 328 331 335 338 344 347 351 356 356 351 351 350 345 343 338 339 340 341 337 337 338 337 337 338 336 330 331 329 329 326 328
324 326 329 332 334 338 342 344 345 346 347 355 353 345 340 342 339 340 337 336 334 334 334 334 335 333 331 330 327 326 325 320
321 323 326 328 332 333 336 338 338 339 339 338 334 337 340 339 337 336 335 337 334 330 331 332 332 331 329 328 328 328 326 323
322 324 325 326 328 330 333 336 337 337 336 336 336 335 333 331 332 331 331 335 332 333 330 331 331 330 328 326 326 326 324 325
318 318 320 323 323 327 328 332 334 336 334 334 333 334 334 332 333 331 331 329 329 330 330 329 326 328 326 325 324 323 323 323
317 317 318 317 319 319 319 325 331 335 333 335 336 335 328 328 332 327 327 325 325 331 328 328 325 324 323 323 322 322 322 323
314 316 317 317 318 319 318 321 322 325 332 335 333 332 332 329 330 331 325 329 325 325 324 325 324 323 322 322 321 321 322 322
312 314 315 316 318 316 322 320 319 323 319 322 326 324 328 328 330 328 327 327 327 325 323 322 322 322 321 321 320 321 321 320
310 310 312 312 313 313 318 319 315 320 316 321 317 320 323 324 325 325 325 327 325 323 321 320 320 319 320 321 321 321 319 320
308 309 310 310 310 311 312 314 315 317 319 318 318 318 317 318 318 320 321 321 320 321 320 319 318 318 319 319 318 319 318 320
Wind_Speed
6 7 8 4 10 8 14 8 6 6 14 10 7 7 6 6 8 8 8 5 5 4 5 5 4 9 6 9 8 7 9 8
8 8 7 5 13 9 13 10 6 3 6 7 8 6 7 7 8 10 6 2 1 5 4 3 3 2 3 3 1 4 7 8
9 9 10 4 10 9 7 8 7 4 2 6 3 7 4 6 5 7 4 3 4 4 3 0 2 3 1 2 3 4 5 7
6 4 6 7 8 8 7 5 8 3 2 4 3 3 3 2 6 10 10 3 4 5 2 4 4 4 4 2 4 4 5 6
4 6 2 4 5 9 7 5 9 6 2 1 3 3 3 3 6 10 9 11 6 6 6 2 4 4 6 4 3 4 5 6
4 4 4 6 2 8 6 8 13 9 4 3 4 4 3 2 4 2 6 4 7 2 1 6 5 5 4 3 3 5 5 6
5 1 5 3 5 3 2 3 14 11 8 4 5 6 5 7 5 3 9 5 8 6 5 5 6 3 3 4 4 4 5 5
12 9 8 7 7 4 5 6 13 9 7 5 3 4 4 5 9 6 8 5 8 6 3 5 0 3 4 4 4 4 5 6
9 8 6 5 7 6 5 6 9 6 5 5 4 6 3 8 7 7 6 6 6 3 5 5 5 4 5 5 4 6 6 4
9 6 6 6 6 4 2 5 5 1 4 3 4 1 6 8 6 5 6 5 4 4 4 3 5 4 5 5 5 6 6 6
8 8 6 7 7 6 6 8 5 5 4 3 4 5 5 7 6 4 4 3 4 3 3 2 2 3 4 5 6 7 7 7
8 9 8 8 8 8 8 8 7 4 9 2 1 1 2 2 4 4 5 4 2 1 2 3 3 3 4 4 6 7 7 9
9 12 10 8 9 8 7 8 8 9 9 11 8 7 3 2 5 5 4 2 5 0 1 4 4 3 5 6 7 6 7 9
11 11 5 5 8 9 7 6 5 6 6 7 7 8 8 7 6 5 3 2 3 4 6 5 4 4 5 6 7 8 8 9
3 3 8 4 2 6 4 5 3 3 5 5 6 6 6 6 4 3 4 3 3 5 5 5 4 5 6 7 7 8 9 9
12 13 12 15 15 14 11 9 4 3 3 2 2 4 4 6 5 6 5 5 5 4 4 4 6 7 8 8 8 8 10 9
9 9 9 11 10 10 13 13 11 13 4 2 5 4 4 4 6 4 5 5 5 6 7 7 8 9 9 9 8 9 10 10
11 7 5 3 5 7 7 6 8 8 13 9 6 5 7 6 4 5 6 6 6 6 7 8 9 9 9 10 9 9 9 9
10 12 13 14 14 14 6 6 6 5 5 4 7 10 7 4 3 4 5 4 5 7 7 9 11 10 10 9 10 10 9 12
15 16 15 14 14 15 15 13 11 11 5 7 5 1 4 6 9 7 8 6 4 6 8 9 10 12 11 9 11 8 11 10
Wind_Direction
290 267 299 33 157 104 124 124 134 172 136 165 167 161 176 190 196 168 213 229 169 185 154 176 181 208 230 222 229 226 244 248
290 266 286 260 82 84 117 126 104 8 114 178 159 151 176 177 196 188 196 208 99 56 67 69 82 101 311 16 236 254 235 247
285 302 306 4 98 87 66 103 114 117 1 27 77 115 218 169 178 176 124 142 121 85 63 111 178 177 144 278 288 302 306 295
292 271 291 315 90 103 118 114 106 129 201 112 80 95 109 242 191 175 191 137 124 127 151 232 219 183 175 202 241 240 253 261
254 310 168 342 93 113 109 107 106 87 287 183 123 153 139 167 276 43 320 133 180 177 186 209 47 37 0 314 307 340 335 325
241 164 48 5 352 117 167 204 129 139 174 182 193 176 169 179 66 154 194 128 155 118 135 63 36 16 326 328 348 360 350 338
250 209 114 350 343 47 180 237 141 153 140 217 201 175 173 165 134 71 346 340 69 30 53 72 34 317 343 18 11 2 320 310
46 15 17 23 2 15 333 309 128 149 149 229 217 132 250 162 124 161 171 77 64 30 35 89 38 343 357 13 341 310 285 293
43 27 24 26 20 5 303 277 125 128 142 231 172 182 189 86 81 81 86 79 84 74 31 34 19 7 4 343 320 312 294 308
61 48 44 42 40 11 286 288 76 178 205 223 305 86 129 112 103 87 88 106 96 87 51 8 37 357 330 309 336 328 318 313
87 72 70 73 64 47 33 15 61 24 55 28 37 68 62 101 110 132 135 114 97 94 62 53 12 338 328 338 314 300 308 316
108 106 84 79 73 66 53 42 24 38 3 71 22 360 143 81 135 98 137 150 84 133 96 62 44 6 311 314 334 317 305 297
138 109 97 102 89 76 58 43 31 24 16 23 3 16 90 144 83 106 66 259 219 170 46 53 28 349 322 296 293 316 312 302
94 93 120 110 151 128 113 89 45 26 19 21 12 16 8 16 24 8 327 350 30 27 43 38 355 300 306 315 294 293 293 294
343 352 152 130 318 96 108 127 78 66 1 5 1 6 2 337 301 310 350 337 354 7 31 358 313 314 307 302 300 293 285 282
50 42 28 24 22 12 7 352 309 258 209 247 347 349 328 326 351 9 349 354 321 337 316 325 321 314 310 304 298 296 290 285
15 17 10 5 357 359 344 347 352 342 320 287 203 204 255 276 317 327 302 298 318 333 321 316 318 305 304 301 294 294 289 291
352 3 331 334 334 319 37 348 334 345 358 337 304 215 214 206 226 251 264 272 285 305 316 312 300 301 296 288 290 291 304 302
359 338 343 347 343 335 292 280 280 280 259 287 307 333 325 296 272 303 298 282 289 292 299 307 301 298 291 292 292 293 305 296
349 348 341 332 326 326 342 345 344 336 18 36 15 335 346 352 323 333 312 304 299 296 297 289 303 303 296 307 301 311 306 312